Вернуться в каталог

CZ-6A DEB

АктивенSSO
NORAD 55001·DEBRIS·🇨🇳 China

Запущен Nov 11, 2022 с Taiyuan Satellite Launch Center

Loading…

Ближайшие Пролёты (ближайшие 24 часа)

TLE

СвежийSource: Space-Track

Эпоха: Sep 14, 2026, 10:09 UTC

1 55001U 22151UR  26257.42314161  .00000170  00000-0  11853-3 0  9995
2 55001  98.8416 255.7034 0044844  88.6887 271.9421 14.10454559196374

Отслеживайте CZ-6A DEB в реальном времени с AllMySat

Download on the App Store